Simultaneous Nadir Overpasses (SNOs) Predictions

Prediction of SNOs between NOAA-19 and METOP-C Satellite Orbit:

Table of predicted SNOs for the next 14.0 days since TLE Epoch: 3/15/2019
Index Date (NOAA-19) Time (NOAA-19) Lat,Lon (NOAA-19) SZA (NOAA-19 ) Date (METOP-C) Time (METOP-C) Lat,Lon (METOP-C) SZA (METOP-C ) Distance(km) Time Diff (sec)
1 03/24/2019 21:06:06 -79.07, 58.06 102.27 03/24/2019 21:07:12 -79.09, 58.09 102.25 1.79 66
2 03/24/2019 21:57:07 79.07,-134.64 77.72 03/24/2019 21:57:53 79.08,-134.61 77.74 2.15 46
3 03/24/2019 22:48:07 -79.07, 32.54 102.30 03/24/2019 22:48:34 -79.07, 32.65 102.29 2.50 27
4 03/24/2019 23:39:08 79.07,-160.17 77.69 03/24/2019 23:39:15 79.07,-160.04 77.70 2.70 7
5 03/25/2019 00:30:07 -79.05, 7.27 102.34 03/25/2019 00:29:56 -79.06, 7.22 102.33 1.97 11
6 03/25/2019 01:21:08 79.04, 174.57 77.64 03/25/2019 01:20:37 79.06, 174.53 77.65 2.28 31
7 03/25/2019 02:12:08 -79.05, -18.25 102.37 03/25/2019 02:11:18 -79.05, -18.21 102.38 0.99 50
8 03/25/2019 03:03:09 79.04, 149.05 77.62 03/25/2019 03:01:59 79.04, 149.10 77.61 1.04 70




NCC Satellite Simultaneous Nadir Overpasses (SNOs) Prediction Service
